Location: Bay Shore Mobile Home Park
(38.5762°N, 75.0841°W)
Time: 20:38:06
(UTC+00:00)

RESURS DK-1 - Pass Details

Date: 15 November 2025
Orbit: 524 x 535 km, 69.9° (Epoch: 08 December)

Event Time Altitude Azimuth Distance (km) Brightness Sun altitude
Rises 22:13:02 0° 355° (N) 2,694 5.7 -5.6°
Reaches altitude 10° 22:16:15 10° 23° (NNE) 1,798 4.6 -6.2°
Maximum altitude 22:18:15 13° 53° (NE) 1,585 4.1 -6.5°
Drops below altitude 10° 22:20:16 10° 84° (E) 1,791 4.3 -6.9°
Enters shadow 22:21:27 - 97° (E) 2,067 4.7 -7.1°
